This demonstration page uses our WeatherBlox Daily Observations layout. Learn more.

Left ArrowRight Arrow

Hourly Observations for February 13, 2015

Temp ( °F °C ) Dew Point ( °F °C ) Humidity (%) Winds ( mph kmh ) Pressure ( in mb ) Visibility ( mi km ) Precip ( " mm )
12:53 am 00:53 Clear 50 10 47 8.3 89 89 Calm 30.15 1021 10 16 0.00 0.00
1:53 am 01:53 Clear 50 10 46 7.8 86 86 Calm 30.13 1020 10 16 0.00 0.00
2:53 am 02:53 Clear 51 10.6 46 7.8 83 83 N 5 7 30.11 1020 10 16 0.00 0.00
3:53 am 03:53 Clear 49 9.4 45 7.2 86 86 Calm 30.09 1019 10 16 0.00 0.00
4:53 am 04:53 Clear 48 8.9 45 7.2 89 89 Calm 30.09 1019 10 16 0.00 0.00
5:53 am 05:53 Clear 48 8.9 45 7.2 89 89 Calm 30.09 1019 9 14 0.00 0.00
6:53 am 06:53 Clear 47 8.3 44 6.7 90 90 Calm 30.09 1019 10 16 0.00 0.00
7:53 am 07:53 Sunny 48 8.9 45 7.2 89 89 Calm 30.12 1020 8 13 0.00 0.00
8:53 am 08:53 Sunny 51 10.6 46 7.8 83 83 Calm 30.14 1021 10 16 0.00 0.00
9:53 am 09:53 Sunny 55 12.8 49 9.4 80 80 SSE 3 6 30.16 1021 10 16 0.00 0.00
10:53 am 10:53 Sunny 59 15 48 8.9 67 67 Calm 30.18 1022 10 16 0.00 0.00
11:53 am 11:53 Sunny 63 17.2 45 7.2 52 52 Calm 30.18 1022 10 16 0.00 0.00
12:53 pm 12:53 Sunny 66 18.9 49 9.4 54 54 N 3 6 30.15 1021 10 16 0.00 0.00
1:53 pm 13:53 Sunny 67 19.4 46 7.8 47 47 NNW 3 6 30.12 1020 10 16 0.00 0.00
2:53 pm 14:53 Sunny 68 20 47 8.3 47 47 NNW 3 6 30.11 1020 10 16 0.00 0.00
3:53 pm 15:53 Sunny 67 19.4 48 8.9 51 51 NNE 3 6 30.11 1020 10 16 0.00 0.00
4:53 pm 16:53 Sunny 66 18.9 51 10.6 59 59 Calm 30.10 1019 10 16 0.00 0.00
5:53 pm 17:53 Clear 60 15.6 51 10.6 72 72 N 3 6 30.11 1020 10 16 0.00 0.00
6:53 pm 18:53 Clear 58 14.4 49 9.4 72 72 undefined N/A 30.11 1020 10 16 0.00 0.00
7:53 pm 19:53 Clear 54 12.2 48 8.9 80 80 NNW 5 7 30.10 1019 10 16 0.00 0.00
8:53 pm 20:53 Clear 56 13.3 49 9.4 77 77 NNW 6 9 30.11 1020 10 16 0.00 0.00
9:53 pm 21:53 Clear 56 13.3 48 8.9 75 75 NNW 5 7 30.11 1020 10 16 0.00 0.00
10:53 pm 22:53 Clear 53 11.7 48 8.9 83 83 Calm 30.10 1019 10 16 0.00 0.00
11:53 pm 23:53 Clear 50 10 47 8.3 89 89 NE 5 7 30.09 1019 10 16 0.00 0.00

Powered by AerisWeather